Flag for Canada Weather past 2 weeks in Timmins, Ontario, Canada

Now
-11 °F

Passing clouds.


Feels Like: -25 °F
Forecast: -14 / -1 °F
Wind: 6 mph from West

Location: Timmins

Current Time: Dec 29, 2014 at 4:41:20 AM

Latest Report: Dec 29, 2014 at 4:00 AM


Visibility: 15 mi

Pressure: 30.23 "Hg

Humidity: 76%

Dew point: -17 °F

Location of TimminsLocation

Historic Weather in Timmins — Graph

°F

Timmins temperature yesterday

Maximum temperature yesterday: 19 °F (at 12:00 AM)
Minimum temperature yesterday: -6 °F (at 11:48 PM)
Average temperature yesterday: 10 °F

Past Weeks' High & Low Weather Summary

 TemperatureHumidityPressure
High36 °F (Dec 15, 3:00 PM)100% (Dec 14, 4:00 AM)30.39 "Hg (Dec 14, 4:00 AM)
Low-9 °F (Dec 29, 1:00 AM)61% (Dec 18, 1:00 PM)29.15 "Hg (Dec 25, 3:00 AM)
Average19 °F90%30.01 "Hg
* Reported Dec 14 3:00 AM — Dec 29 3:00 AM, Timmins, Weather by CustomWeather, © 2014

Note: Actual official high and low records may vary slightly from our data, if they occured in-between our weather recording intervals... More about our weather records

Advertising

Timmins weather history for previous 24 hours

 ConditionsComfort  
Time TempWeatherWind HumidityBarometerVisibility
3:00 AM
Dec 29
-9 °FClear.7 mph77%30.22 "Hg15 mi
2:00 AM-9 °FClear.6 mph84%30.19 "Hg15 mi
1:00 AM-9 °FClear.7 mph84%30.18 "Hg15 mi
12:00 AM-6 °FPassing clouds.9 mph77%30.17 "Hg15 mi
11:48 PM
Dec 28
-6 °FPassing clouds.10 mph77%30.17 "Hg15 mi
11:00 PM-4 °FLight snow. Passing clouds.12 mph77%30.16 "Hg15 mi
10:00 PM0 °FLight snow. Passing clouds.10 mph71%30.14 "Hg10 mi
9:00 PM1 °FLight snow. Passing clouds.10 mph78%30.12 "Hg10 mi
8:00 PM3 °FLight snow. Passing clouds.13 mph72%30.09 "Hg12 mi
7:00 PM1 °FLight snow. Passing clouds.7 mph85%30.07 "Hg10 mi
6:00 PM1 °FLight snow. Passing clouds.5 mph85%30.06 "Hg10 mi
5:00 PM5 °FLight snow. Passing clouds.12 mph72%30.03 "Hg10 mi
4:00 PM5 °FScattered showers. Partly sunny.8 mph85%30.01 "Hg15 mi
3:00 PM7 °FScattered showers. Scattered clouds.16 mph78%29.97 "Hg10 mi
2:00 PM10 °FLight snow. Overcast.18 mph79%29.93 "Hg2 mi
1:00 PM14 °FLight snow. Overcast.20 mph79%29.89 "Hg1 mi
12:00 PM18 °FLight snow. More clouds than sun.14 mph79%29.87 "Hg1 mi
11:00 AM18 °FLight snow. Ice fog.7 mph86%29.88 "Hg1 mi
10:49 AM18 °FLight snow. Overcast.7 mph86%29.88 "Hg1 mi
10:00 AM18 °FLight snow. Mostly cloudy.7 mph86%29.88 "Hg10 mi
9:00 AM14 °FLight snow. Mostly cloudy.5 mph92%29.88 "Hg5 mi
8:00 AM14 °FLight snow. Mostly cloudy.5 mph85%29.87 "Hg10 mi
7:00 AM12 °FLight snow. Mostly cloudy.3 mph92%29.86 "Hg8 mi
6:00 AM14 °FLight snow. Overcast.3 mph92%29.86 "Hg8 mi
5:00 AM16 °FLight snow. Mostly cloudy.5 mph93%29.85 "Hg8 mi
4:00 AM16 °FLight snow. Mostly cloudy.7 mph86%29.85 "Hg8 mi
Weather by CustomWeather, © 2014

See weather overviewHow to use our weather pages